{"data":{"norad_id":58271,"intl_designator":"2023-174R","name":"FLOCK 4Q-16","alt_names":[],"object_type":"PAYLOAD","status":"ACTIVE","operator":null,"country":"US","launch_date":"2023-11-11","launch_site_code":"AFWTR","launch_vehicle":null,"mission":null,"orbit_class":"UNKNOWN","rcs_meters":null,"size_class":null,"mass_kg":null,"dimensions":null,"purposes":["earth_obs"],"wikipedia_slug":null,"has_3d_model":false,"image_url":null,"decayed_at":null,"tle_current":{"epoch":"2026-09-18T04:37:58.752768Z","epoch_age_seconds":217486,"freshness":"STALE","line1":"1 58271U 23174R   26261.19304112  .00022114  00000+0  35378-3 0  9996","line2":"2 58271  97.3757 351.6752 0006208 182.8213 177.3006 15.53135874159992","mean_motion":15.53135874,"eccentricity":0.0006208,"inclination_deg":97.3757,"raan_deg":351.6752,"arg_perigee_deg":182.8213,"mean_anomaly_deg":177.3006,"bstar":0.00035378,"rev_number":15999,"period_min":92.715648650325,"perigee_km":403.36426155648,"apogee_km":411.78940385117,"semimajor_km":6785.7138327038,"source":"CELESTRAK","updated_at":"2026-09-20T09:00:34.709695Z"}}}